Погода в Янгорчино

Россия / Чувашская Республика     55°32′21″N   47°06′45″E
темп.,
°C
ветер,
м/с
пор.,
м/с
влажн.,
%
обл.,
%
осадки,
мм/ч
давл.,
гПа
погр.,
м
13 апреля, вт
вт1300:00+4вюв379983 0.0 1036126
03:00+6юв38100100 0.0 1035180
06:00+5юв36100100 0.0 103595
09:00+8ююв359897 0.0 1034162
12:00+16ююв476367 0.0 1033712
15:00+17ю474822 0.0 1031695
18:00+12ююв34615 0.0 103156
21:00+9ююв46665 0.0 103170
14 апреля, ср
ср1400:00+7ю336857 0.0 103032
03:00+6ю336787 0.0 103019
06:00+6ююв33667 0.0 102927
09:00+13ююв465142 0.0 1028322
12:00+17ююв56397 0.0 1027885
15:00+18ююв57465 0.0 10251082
18:00+15юв48685 0.0 1024204
21:00+11ююв38847 0.0 1024143
15 апреля, чт
чт1500:00+10ююв36870 0.0 102387
03:00+9ю22890 0.0 102221
06:00+9ю22890 0.0 102132
09:00+14ю346222 0.0 1020481
12:00+18юз3343100 0.0 10191563
15:00+18зюз2338100 0.0 10191502
18:00+15зсз225111 0.0 101811
21:00+12ссв2260100 0.0 101910
16 апреля, пт
пт1600:00+11всв226487 0.0 101914
03:00+9св3573100 0.0 101975
06:00+7св599598 0.0 1020262
09:00+10всв677797 0.0 1021472
12:00+13всв666581 0.0 1022805
15:00+14всв6760100 0.0 10221091
18:00+12всв5968100 0.0 1023445
21:00+9всв6117080 0.0 1024459
17 апреля, сб
сб1700:00+6всв5126458 0.0 1025309
03:00+4всв497085 0.0 1026225
06:00+3всв497353 0.0 1028234
09:00+8всв56506 0.0 1028737
12:00+11всв554060 0.0 10271249
15:00+12св453814 0.0 10261560
18:00+10ссв34491 0.0 102696
21:00+6ссв33585 0.0 102743